Regional Weather Roundup
Issued by NWS

Home | Current Version | Previous Version | Graphics & Text | Print | Product List | Glossary On
Versions: 1 2 3 4 5 6 7 8 9 10 11 12 13 14 15 16 17 18 19 20 21 22 23 24 25 26 27 28 29 30 31 32 33 34 35 36 37 38 39 40 41 42 43 44 45 46 47 48 49 50
000
ASUS43 KMPX 201210
RWRMN
WEATHER ROUNDUP FOR MINNESOTA
NATIONAL WEATHER SERVICE TWIN CITIES/CHANHASSEN MN
700 AM CDT SAT SEP 20 2014


NOTE: "FAIR" INDICATES FEW OR NO CLOUDS BELOW 12,000 FEET WITH NO
SIGNIFICANT WEATHER AND/OR OBSTRUCTIONS TO VISIBILITY. N/A MEANS
CURRENT SKY AND/OR WEATHER CONDITIONS ARE NOT AVAILABLE.

MNZ060>063-068>070-201300-
   Twin Cities Metro

CITY           SKY/WX    TMP DP  RH WIND       PRES   REMARKS
TWIN CITIES    MOCLDY    66  62  87 W10       29.75R
6HR MIN TEMP:  66; 6HR MAX TEMP:  73;

ST PAUL        MOCLDY    66  63  90 W10       29.74R
CRYSTAL        PTCLDY    65  59  81 W7        29.74R
BLAINE         PTCLDY    66  63  88 W10G17    29.75R
LAKEVILLE      MOCLDY    64  63  94 W7        29.75R
EDEN PRAIRIE   PTCLDY    64  62  93 W6        29.75R
6HR MIN TEMP:  64; 6HR MAX TEMP:  71;

SOUTH ST PAUL  MOCLDY    67  63  85 W9        29.74R
LAKE ELMO      FAIR      64  63  94 W10       29.74R
$$
MNZ001>005-007-008-013>017-022>024-027-028-201300-
   Northwest Minnesota

CITY           SKY/WX    TMP DP  RH WIND       PRES   REMARKS
BEMIDJI        CLOUDY    54  52  92 NW8       29.77R
HALLOCK        CLEAR     52  50  93 NW3       29.77R
ROSEAU         CLEAR     48  45  87 W6        29.76R
WARROAD        CLEAR     48  45  87 W6        29.75R
THIEF RVR FALL CLOUDY    54  52  94 W7        29.79R
CROOKSTON      CLOUDY    54  52  94 W5        29.81R
FOSSTON        CLOUDY    54  52  94 W7        29.80R
DETROIT LAKES  CLOUDY    55  54  94 NW3       29.81S
MOORHEAD       CLOUDY    54  54 100 CALM      29.82R
PARK RAPIDS    MOCLDY    55  52  89 NW7       29.78S
MAHNOMEN       CLOUDY    55  53  93 W5        29.80R
$$
MNZ006-009>011-018-025>026-201300-
   North Central Minnesota

CITY           SKY/WX    TMP DP  RH WIND       PRES   REMARKS
BAUDETTE       CLOUDY    51  48  89 NW7       29.71S
FLAG ISLAND    CLOUDY    52  48  87 W14       29.71R
INTL FALLS     CLOUDY    54  53  97 W12G18    29.68R FOG
6HR MIN TEMP:  54; 6HR MAX TEMP:  60; 6HR PCP:  0.01;

WASKISH        CLOUDY    54  52  94 W8        29.74R
BIG FORK       CLOUDY    55  52  88 W9        29.72R
LONGVILLE      CLOUDY    55  54  94 W10G16    29.75R
GRAND RAPIDS   CLOUDY    57  52  82 NW14      29.71R
CRANE LAKE     CLOUDY    57  55  94 W5        29.66R
ORR            CLOUDY    55  54  94 NW8       29.65R
COOK           CLOUDY    57  55  94 W10       29.68R
WALKER         CLOUDY    54  51  90 W7        29.77R
$$
MNZ012-019>021-037-201300-
   Northeast Minnesota

CITY           SKY/WX    TMP DP  RH WIND       PRES   REMARKS
DULUTH         CLOUDY    62  57  83 NW16G24   29.65R
6HR MIN TEMP:  62; 6HR MAX TEMP:  64;

ELY            CLOUDY    59  57  94 W9        29.63R
HIBBING        CLOUDY    59  54  83 NW18      29.68R
EVELETH        CLOUDY    59  55  88 NW12G17   29.67R
DULUTH HARBOR  CLOUDY    64  59  82 W17G28    29.64R
TWO HARBORS    MOCLDY    63  57  82 NW7       29.60R
SILVER BAY     CLEAR     61  61 100 W6        29.58R
GRAND MARAIS     N/A     54  54 100 SW5       29.54R
G MARAIS ARPRT MOCLDY    59  55  88 W7        29.59R
$$
MNZ029>031-032-039>041-046>048-054>057-064-201300-
   West Central Minnesota

CITY           SKY/WX    TMP DP  RH WIND       PRES   REMARKS
FERGUS FALLS   MOCLDY    55  54  94 NW5       29.82S
WHEATON        CLEAR     54  52  94 W6        29.85R
MORRIS         CLOUDY    57  55  94 NW8       29.82R FOG
ALEXANDRIA     MOCLDY    57  56  96 W10       29.81R FOG
ELBOW LAKE     CLOUDY    56  55  94 NW7       29.82R
WADENA         CLEAR     55  54  94 NW6       29.78S
GLENWOOD       CLEAR     55  54  94 W8        29.81S FOG
APPLETON       CLEAR     54  52  94 NW6       29.83R
BENSON         CLOUDY    57  55  94 N7        29.82S
ORTONVILLE     CLEAR     57  55  94 W5        29.84R
MADISON        CLEAR     57  55  94 W6        29.84R
WILLMAR        MOCLDY    57  55  94 NW7       29.83R
$$
MNZ033>034-036-042>043-049>051-058-059-201300-
   Central Minnesota

CITY           SKY/WX    TMP DP  RH WIND       PRES   REMARKS
ST CLOUD       CLEAR     60  57  89 NW8       29.76R
6HR MIN TEMP:  60; 6HR MAX TEMP:  67;

SAUK CENTRE    FAIR      55  55  97 W5        29.79S
PAYNESVILLE    PTCLDY    54  53  99 SW5       29.81R
AITKIN         CLEAR     61  54  77 W3        29.72R
PINE RIVER     PTCLDY    55  54  94 NW7       29.79R
BRAINERD       CLEAR     57  55  93 NW9       29.76R
STAPLES        MOCLDY    55  55 100 W7        29.77S
LONG PRAIRIE   FAIR      54  54 100 CALM      29.79S
LITTLE FALLS   CLEAR     55  54  94 W5        29.77R
LITCHFIELD     CLEAR     61  59  94 W7        29.80R
BUFFALO        CLEAR     61  56  84 W12       29.79R
MAPLE LAKE     MOCLDY    62  59  90 NW12G22   29.80R
$$
MNZ037-044-045-052-053-201300-
   East Central Minnesota

CITY           SKY/WX    TMP DP  RH WIND       PRES   REMARKS
PRINCETON      MOCLDY    63  57  82 W10G20    29.75R
MORA           CLOUDY    59  55  88 NW12      29.75R
CAMBRIDGE      MOCLDY    63  54  72 W10       29.73R
RUSH CITY      MOCLDY    60  58  92 CALM      29.73R
MOOSE LAKE     MOCLDY    61  57  88 NW6       29.68R
HINCKLEY       CLOUDY    61  61 100 NW7       29.71R
CLOQUET        CLOUDY    61  57  88 W9G20     29.68R
MCGREGOR       PTCLDY    59  55  88 NW7       29.72R
$$
MNZ071>073-080-081-089-090-097-098-201300-
   Southwest Minnesota

CITY           SKY/WX    TMP DP  RH WIND       PRES   REMARKS
MONTEVIDEO     CLEAR     57  54  88 CALM      29.84R
GRANITE FALLS  CLEAR     54  53  97 W6        29.85R
CANBY          CLEAR     57  55  91 W5        29.86R
MARSHALL       PTCLDY    57  54  88 NW9       29.84R
REDWOOD FALLS  PTCLDY    60  56  86 NW10      29.81R
OLIVIA         CLEAR     59  55  88 W8        29.81R
PIPESTONE      MOCLDY    61  55  82 NW7       29.87R
WINDOM         CLOUDY    63  57  82 W7        29.84R
WORTHINGTON    MOCLDY    63  57  82 W5        29.87R
JACKSON        CLOUDY    64  59  82 W5        29.85R
TRACY          PTCLDY    61  57  86 CALM      29.85S
SLAYTON        CLOUDY    59  57  92 CALM      29.87R
$$
MNZ065>067-074>077-082>085-091>093-201300-
   South Central Minnesota

CITY           SKY/WX    TMP DP  RH WIND       PRES   REMARKS
MANKATO        MOCLDY    64  59  82 W10       29.79R
NEW ULM        MOCLDY    61  59  94 W8        29.80R
ST JAMES       CLOUDY    64  59  82 W7        29.83R
FAIRMONT       CLOUDY    64  59  82 W7        29.83R
GLENCOE        PTCLDY    62  56  81 W10       29.77R
FARIBAULT      MOCLDY    66  61  82 SW7       29.78R
OWATONNA       MOCLDY    64  63  94 SW9       29.79R
WASECA         CLOUDY    63  57  82 SW8       29.80R
ALBERT LEA     CLOUDY    64  63  94 W9        29.80R
$$
MNZ078>079-086>088-094>096-201300-
   Southeast Minnesota

CITY           SKY/WX    TMP DP  RH WIND       PRES   REMARKS
ROCHESTER      MOCLDY    63  61  93 SW12      29.79R
6HR MIN TEMP:  63; 6HR MAX TEMP:  67; 6HR PCP:  0.07;

RED WING       PTCLDY    68  63  83 W5        29.72R
STANTON        MOCLDY    67  63  87 SW8       29.74R
DODGE CENTER   MOCLDY    64  63  94 SW12      29.78R
WINONA         MOCLDY    66  63  88 W7        29.75R
AUSTIN         CLOUDY    63  61  94 SW8       29.73R
PRESTON        CLOUDY    62  62 100 SW10      29.79F
$$
ABBREVIATIONS USED IN REMARKS
   TC - TEMPERATURES IN CELSIUS
  WCI - WIND CHILL INDEX
   HX - HEAT INDEX
  VSB - VISIBILITY
$$


USA.gov is the U.S. government's official web portal to all federal, state and local government web resources and services.